W4CKA Weather Reports


time (UTC)temp
C
wind
direction
speed
KPH
gust
KPH
rain 1hr
cm
rain 24hr
cm
rain mn
cm
humidity
%
barometer
mb
20260504213718 25 259 6.4 11.3 0.00 0.00 0.00 45 1054.3
20260504212717 25 261 0.0 11.3 0.00 0.00 0.00 46 1054.3
20260504211717 25 307 4.8 6.4 0.00 0.00 0.00 45 1054.5
20260504210716 25 178 4.8 11.3 0.00 0.00 0.00 44 1054.5
20260504205716 25 346 4.8 4.8 0.00 0.00 0.00 47 1054.7
20260504204712 24 250 8.0 12.9 0.00 0.00 0.00 43 1055.0
20260504203709 24 243 0.0 14.5 0.00 0.00 0.00 49 1054.9
20260504202706 23 254 1.6 9.7 0.00 0.00 0.00 46 1055.1
20260504201700 25 66 1.6 4.8 0.00 0.00 0.00 48 1055.2
20260504200655 25 7 0.0 8.0 0.00 0.00 0.00 50 1055.1
20260504195653 24 350 4.8 6.4 0.00 0.00 0.00 52 1055.3
20260504194652 23 294 4.8 4.8 0.00 0.00 0.00 51 1055.9
20260504193650 23 36 4.8 8.0 0.00 0.00 0.00 56 1055.9
20260504192646 23 0 4.8 6.4 0.00 0.00 0.00 52 1056.0
20260504191642 23 315 3.2 8.0 0.00 0.00 0.00 55 1056.2
20260504190640 22 300 1.6 6.4 0.00 0.00 0.00 58 1056.6
20260504185639 22 328 4.8 6.4 0.00 0.00 0.00 53 1056.8
20260504184638 22 267 6.4 9.7 0.00 0.00 0.00 51 1056.8
20260504183636 22 251 6.4 6.4 0.00 0.00 0.00 53 1057.1
20260504182631 21 326 4.8 12.9 0.00 0.00 0.00 55 1057.0
20260504181631 22 307 4.8 6.4 0.00 0.00 0.00 55 1057.0
20260504180628 21 254 4.8 12.9 0.00 0.00 0.00 55 1057.3
20260504175623 21 277 4.8 14.5 0.00 0.00 0.00 53 1057.5
20260504174618 20 260 6.4 9.7 0.00 0.00 0.00 56 1057.5
20260504173617 20 263 4.8 8.0 0.00 0.00 0.00 57 1057.6
20260504172616 20 319 3.2 14.5 0.00 0.00 0.00 58 1057.7
20260504171615 19 77 1.6 16.1 0.00 0.00 0.00 58 1057.8
20260504170614 20 318 4.8 9.7 0.00 0.00 0.00 58 1057.9
20260504150548 13 17 4.8 6.4 0.00 0.00 0.00 71 1060.0
20260504140534 12 93 6.4 11.3 0.00 0.00 0.00 79 1060.9
20260504130527 9 57 6.4 9.7 0.00 0.00 0.00 83 1060.6
20260504110502 2 55 6.4 6.4 0.00 0.00 0.00 98 1059.1
20260504100448 2 48 3.2 4.8 0.00 0.00 0.00 97 1059.5
20260504081424 3 37 3.2 3.2 0.00 0.00 0.00 96 1059.6
20260504080422 3 151 0.0 1.6 0.00 0.00 0.00 96 1059.3
20260504070402 5 99 4.8 6.4 0.00 0.00 0.00 94 1059.3
20260504050328 5 71 3.2 4.8 0.00 0.00 0.00 90 1059.5
20260504045326 5 30 3.2 3.2 0.00 0.00 0.00 89 1059.3
20260504044320 6 349 0.0 3.2 0.00 0.00 0.00 87 1059.4
20260504043320 7 90 0.0 4.8 0.00 0.00 0.00 84 1059.4
20260504042320 6 20 0.0 0.0 0.00 0.00 0.00 85 1059.3
20260504041318 7 54 1.6 4.8 0.00 0.00 0.00 83 1059.4
20260504040318 7 110 4.8 8.0 0.00 0.00 0.00 82 1059.2
20260504035318 7 73 3.2 6.4 0.00 0.00 0.00 82 1059.2
20260504034312 7 101 4.8 6.4 0.00 0.00 0.00 84 1059.2
20260504033307 7 90 3.2 4.8 0.00 0.00 0.00 84 1058.8
20260504032306 7 36 3.2 4.8 0.00 0.00 0.00 83 1059.1
20260504031306 7 66 0.0 3.2 0.00 0.00 0.00 85 1059.2
20260504030306 7 36 3.2 4.8 0.00 0.00 0.00 82 1059.1
20260504025305 7 0 0.0 0.0 0.00 0.00 0.00 82 1059.1
20260504024304 7 9 3.2 4.8 0.00 0.00 0.00 82 1059.0
20260504023303 7 26 1.6 4.8 0.00 0.00 0.00 83 1059.1
20260504022301 7 26 3.2 3.2 0.00 0.00 0.00 82 1058.9
20260504021302 7 54 0.0 4.8 0.00 0.00 0.00 81 1058.8
20260504020301 8 294 1.6 1.6 0.00 0.00 0.00 79 1058.8
20260504015259 8 21 3.2 4.8 0.00 0.00 0.00 78 1058.8
20260504014257 8 277 1.6 1.6 0.00 0.00 0.00 78 1058.7
20260504013253 9 270 3.2 3.2 0.00 0.00 0.00 76 1058.5
20260504012253 9 286 0.0 3.2 0.00 0.00 0.00 75 1058.5
20260504011252 10 270 1.6 3.2 0.00 0.00 0.00 72 1058.6
20260504010250 10 278 1.6 3.2 0.00 0.00 0.00 70 1058.6
20260504005249 11 306 1.6 3.2 0.00 0.00 0.00 66 1058.6
20260504004244 11 90 0.0 3.2 0.00 0.00 0.00 65 1058.6
20260504003243 12 340 0.0 1.6 0.00 0.00 0.00 62 1058.1
20260504002242 12 315 0.0 0.0 0.00 0.00 0.00 64 1058.2
20260504001243 12 270 0.0 3.2 0.00 0.00 0.00 61 1057.9
20260504000242 13 77 0.0 0.0 0.00 0.00 0.00 53 1058.0
20260503235237 14 90 0.0 0.0 0.00 0.00 0.00 54 1058.2
20260503234233 15 0 1.6 1.6 0.00 0.00 0.00 50 1058.2
20260503233231 16 0 0.0 3.2 0.00 0.00 0.00 46 1058.4
20260503232231 17 233 4.8 4.8 0.00 0.00 0.00 44 1058.4
20260503231226 17 320 0.0 4.8 0.00 0.00 0.00 43 1058.4
20260503230226 17 348 1.6 4.8 0.00 0.00 0.00 43 1058.5
20260503225223 17 264 4.8 8.0 0.00 0.00 0.00 45 1058.5
20260503224218 17 324 3.2 4.8 0.00 0.00 0.00 43 1058.7
20260503223213 17 232 6.4 9.7 0.00 0.00 0.00 43 1058.8
20260503222213 17 254 9.7 11.3 0.00 0.00 0.00 42 1058.6
20260503221209 17 257 6.4 6.4 0.00 0.00 0.00 43 1058.9
20260503220208 18 320 3.2 6.4 0.00 0.00 0.00 44 1059.0
20260503215207 17 232 0.0 8.0 0.00 0.00 0.00 41 1058.9